Terminal Aerodrome Forecast
Issued by NWS Miami, FL

Home | Current Version | Previous Version | Text Only | Print | Product List | Glossary On
Versions: 1 2 3 4 5 6 7 8 9 10 11 12 13 14 15 16 17 18 19 20 21 22 23 24 25 26 27 28 29 30 31 32 33 34 35 36 37 38 39 40 41 42 43 44 45 46 47 48 49 50
000
FTUS42 KMFL 302334
TAFPBI
TAF
KPBI 302334Z 3100/3124 17008KT P6SM VCSH SCT050 OVC120
     FM310600 16004KT P6SM VCSH SCT030 OVC250
     FM311500 16010KT P6SM VCTS SCT030CB OVC250=

USA.gov is the U.S. government's official web portal to all federal, state and local government web resources and services.